Location: Central Coast
(33.3208°S, 151.2336°E)
Time: 02:13:50
(UTC+11:00)

Tiangong 1 - Pass Details

Date: 14 October 2017
Orbit: 292 x 319 km, 42.8° (Epoch: 23 October)

Event Time Altitude Azimuth Distance (km) Brightness Sun altitude
Exits shadow 05:31:32 - 232° (SW) 1,525 3.8 -9.8°
Reaches altitude 10° 05:32:58 10° 209° (SSW) 1,188 3.4 -9.5°
Maximum altitude 05:34:03 12° 185° (S) 1,100 3.5 -9.3°
Drops below altitude 10° 05:35:07 10° 161° (SSE) 1,195 4.1 -9.1°
Sets 05:38:03 0° 126° (SE) 2,032 6.3 -8.5°
